Regional Weather Roundup
Issued by NWS

Home | Current Version | Previous Version | Text Only | Print | Product List | Glossary Off
Versions: 1 2 3 4 5 6 7 8 9 10 11 12 13 14 15 16 17 18 19 20 21 22 23 24 25 26 27 28 29 30 31 32 33 34 35 36 37 38 39 40 41 42 43 44 45 46 47 48 49 50

391
ASUS43 KOAX 230802
RWRNE

WEATHER ROUNDUP FOR NEBRASKA
NATIONAL WEATHER SERVICE OMAHA NE
300 AM CDT THU MAR 23 2017

NOTES: SATELLITE DATA IS BEING USED TO AUGMENT CLOUD COVER ABOVE
       12000 FEET.
       "FAIR" INDICATES FEW OR NO CLOUDS BELOW 12,000 FEET WITH NO
       SIGNIFICANT WEATHER AND/OR OBSTRUCTIONS TO VISIBILITY.

  * THESE STATIONS DO NOT REPORT WEATHER SUCH AS RAIN...SNOW OR FOG.

NEZ001>004-019>022-054>056-230900-
NEBRASKA PANHANDLE

CITY           SKY/WX    TMP DP  RH WIND       PRES   REMARKS
SCOTTSBLUFF    CLOUDY    47  36  65 E15       29.75F
ALLIANCE       CLOUDY    42  33  70 S16       29.77F
CHADRON        MOCLDY    48  36  63 SE13      29.71S
KIMBALL        CLOUDY    44  39  83 SE5       29.76F
SIDNEY         CLOUDY    39  33  79 SE10      29.78F WCI  32
$$

NEZ057>060-069>072-079>082-230900-
SOUTHWEST NEBRASKA

CITY           SKY/WX    TMP DP  RH WIND       PRES   REMARKS
NORTH PLATTE   CLOUDY    43  35  73 SE12      29.88F
IMPERIAL       CLOUDY    40  35  83 SE14      29.83F WCI  32
LEXINGTON      MOCLDY    44  32  63 SE12      29.93F
MCCOOK         CLOUDY    44  37  76 SE12      29.89F
OGALLALA       CLOUDY    41  35  77 SE8       29.84F
$$

NEZ005>010-023>029-035>040-094-230900-
NORTH CENTRAL NEBRASKA

CITY           SKY/WX    TMP DP  RH WIND       PRES   REMARKS
VALENTINE      PTCLDY    43  28  55 S15       29.85F
AINSWORTH      PTCLDY    42  32  67 S17       29.87F
BROKEN BOW     CLOUDY    44  32  62 S13       29.92F
O`NEILL        CLOUDY    45  32  60 S9        29.93F
ORD            PTCLDY    45  27  49 SE10      29.95F
THEDFORD       CLOUDY    44  34  67 S14G20    29.89S
$$

NEZ041-046>049-061>064-073>077-083>087-230900-
SOUTH CENTRAL NEBRASKA

CITY           SKY/WX    TMP DP  RH WIND       PRES   REMARKS
GRAND ISLAND   MOCLDY    47  29  49 SE15G22   29.99F
AURORA         CLOUDY    47  28  47 SE13      29.99F
HASTINGS       CLOUDY    48  28  46 SE13      29.99F
HEBRON         CLOUDY    49  30  47 SE10      30.02F
HOLDREGE       CLOUDY    43  30  58 SE9       29.94F
KEARNEY *      CLOUDY    45  27  49 SE12      29.96F
YORK           CLOUDY    48  28  46 SE12      30.02F
$$

NEZ011>018-030>034-042>045-230900-
NORTHEAST NEBRASKA

CITY           SKY/WX    TMP DP  RH WIND       PRES   REMARKS
NORFOLK        CLOUDY    47  26  44 SE17G26   30.00F
ALBION         CLOUDY    50  27  41 SE15      29.99F
BLAIR          CLOUDY    45  25  46 SE13G18   30.08F
FREMONT        CLOUDY    46  27  47 SE10      30.08F
TEKAMAH        CLOUDY    44  24  45 SE16      30.09F
WAYNE          CLOUDY    43  29  59 SE15      30.04F
$$

NEZ050>053-065>068-078-088>093-230900-
SOUTHEAST NEBRASKA

CITY           SKY/WX    TMP DP  RH WIND       PRES   REMARKS
LINCOLN        CLOUDY    49  27  42 SE16      30.07F
OMAHA EPPLEY   CLOUDY    45  22  40 SE16      30.10F
BEATRICE       CLOUDY    51  29  43 SE15      30.04F
FALLS CITY     CLOUDY    50  25  37 SE9       30.11F
NEBRASKA CITY  CLOUDY    47  16  29 SE12      30.10F
PLATTSMOUTH    CLOUDY    46  19  34 SE12      30.09F
$$

NEZ044-045-051>053-067-230900-
OMAHA AREA

CITY           SKY/WX    TMP DP  RH WIND       PRES   REMARKS
OMAHA EPPLEY   CLOUDY    45  22  40 SE16      30.10F
BLAIR          CLOUDY    45  25  46 SE13G18   30.08F
FREMONT        CLOUDY    46  27  47 SE10      30.08F
MILLARD        CLOUDY    47  28  46 SE8       30.09F
OFFUTT AFB     CLOUDY    45  22  41 E12       30.10F
PLATTSMOUTH    CLOUDY    46  19  34 SE12      30.09F
WAHOO          CLOUDY    46  26  44 SE16      30.07F
$$




USA.gov is the U.S. government's official web portal to all federal, state and local government web resources and services.